Find AE1a

NORAD ID: 68479 Int'l Des: NNA 2026-067 Owner: ARKE Country: J operational
LEOCIRCULARRETROGRADESSO

实时位置

正在加载3D地球...

关于 AE1a

正在加载描述...

即将过境

Passes for default location (London). Set your location on the main map for personalized predictions.

高度历史

Loading altitude history...

两行轨道根数

1 68479U 26067BR 26132.61971325 .00002930 00000-0 29234-3 0 9990
2 68479 97.7524 91.4331 0002759 61.6637 298.4860 14.92306342 6426
Epoch: May 12, 2026 • Age: 3 hours

当前状态

高度 597.8 km
速度 7.57 km/s
星下点 54.38°N, 64.9°W
发射日期 Mar 30, 2026
运行时间 0.1 years
类型 other

技术详情

分类 Payload
质量 10.00 kg
干质量 10.00 kg
总质量 10.00 kg
长度 0.30 m
直径 0.20 m
跨度 0.30 m
形状 Box+ 2 pan
制造商 ARKE
平台类型 Cubesat 6U
阶段状态 In Orbit
所有者/国家 ARKE/J

Most Searched